Terminal Aerodrome Forecast
Issued by NWS Oklahoma City, OK

Home | Current Version | Previous Version | Text Only | Print | Product List | Glossary On
Versions: 1 2 3 4 5 6 7 8 9 10 11 12 13
000
FTUS44 KOUN 270520
TAFOUN
TAF
KOUN 270520Z 2706/2806 14006KT P6SM SCT040 SCT250=

USA.gov is the U.S. government's official web portal to all federal, state and local government web resources and services.